Powrót do katalogu

STARLINK-31796

AktywnyŁącznośćVLEO
NORAD 59646·PAYLOAD·🇺🇸 United States

Wystrzelony May 3, 2024 z Cape Canaveral Space Force Station

Loading…

Następne Przeloty (najbliższe 24 godziny)

TLE

ŚwieżeSource: CelesTrak SupGP

Epoka: Sep 14, 2026, 21:12 UTC

1 59646C 24082R   26257.88381944 -.00047498  00000+0 -17204-2 0  2579
2 59646  42.9993 151.2924 0001333 264.0054 225.7414 15.27601452    12

Śledź STARLINK-31796 w czasie rzeczywistym z AllMySat

Download on the App Store